| time (UTC) | temp F | wind direction | speed knots | gust knots | rain 1hr in | rain 24hr in | rain mn in | humidity % | barometer mb |
| 20260506114826 | 81 | 110 | 5.2 | 0.0 | 0.00 | 0.00 | 0.00 | 26 | 1012.0 |
| 20260506113326 | 81 | 110 | 5.2 | 0.0 | 0.00 | 0.00 | 0.00 | 26 | 1012.0 |
| 20260506111826 | 79 | 120 | 5.2 | 0.0 | 0.00 | 0.00 | 0.00 | 30 | 1013.0 |
| 20260506110326 | 79 | 120 | 5.2 | 0.0 | 0.00 | 0.00 | 0.00 | 30 | 1013.0 |
| 20260506104826 | 79 | 180 | 5.2 | 0.0 | 0.00 | 0.00 | 0.00 | 28 | 1013.0 |
| 20260506103326 | 79 | 180 | 5.2 | 0.0 | 0.00 | 0.00 | 0.00 | 28 | 1013.0 |
| 20260506101826 | 77 | 170 | 4.3 | 0.0 | 0.00 | 0.00 | 0.00 | 30 | 1013.0 |
| 20260506100326 | 77 | 170 | 4.3 | 0.0 | 0.00 | 0.00 | 0.00 | 30 | 1013.0 |
| 20260506094826 | 77 | 2.6 | 0.0 | 0.00 | 0.00 | 0.00 | 34 | 1014.0 | |
| 20260506093326 | 77 | 2.6 | 0.0 | 0.00 | 0.00 | 0.00 | 34 | 1014.0 | |
| 20260506091826 | 73 | 90 | 4.3 | 0.0 | 0.00 | 0.00 | 0.00 | 38 | 1014.0 |
| 20260506090326 | 73 | 90 | 4.3 | 0.0 | 0.00 | 0.00 | 0.00 | 38 | 1014.0 |
| 20260506084826 | 72 | 4.3 | 0.0 | 0.00 | 0.00 | 0.00 | 41 | 1014.0 | |
| 20260506083326 | 72 | 4.3 | 0.0 | 0.00 | 0.00 | 0.00 | 41 | 1014.0 | |
| 20260506081823 | 70 | 90 | 6.1 | 0.0 | 0.00 | 0.00 | 0.00 | 46 | 1014.0 |
| 20260506080326 | 70 | 90 | 6.1 | 0.0 | 0.00 | 0.00 | 0.00 | 46 | 1014.0 |
| 20260506073326 | 66 | 60 | 4.3 | 0.0 | 0.00 | 0.00 | 0.00 | 52 | 1014.0 |
| 20260506071826 | 63 | 70 | 5.2 | 0.0 | 0.00 | 0.00 | 0.00 | 59 | 1014.0 |
| 20260506070326 | 63 | 70 | 5.2 | 0.0 | 0.00 | 0.00 | 0.00 | 59 | 1014.0 |
| 20260506061826 | 57 | 60 | 5.2 | 0.0 | 0.00 | 0.00 | 0.00 | 63 | 1014.0 |
| 20260506060328 | 57 | 60 | 5.2 | 0.0 | 0.00 | 0.00 | 0.00 | 63 | 1014.0 |
| 20260506050340 | 50 | 90 | 5.2 | 0.0 | 0.00 | 0.00 | 0.00 | 76 | 1014.0 |
| 20260506044842 | 48 | 100 | 5.2 | 0.0 | 0.00 | 0.00 | 0.00 | 76 | 1014.0 |
| 20260506043330 | 48 | 100 | 5.2 | 0.0 | 0.00 | 0.00 | 0.00 | 76 | 1014.0 |
| 20260506041827 | 46 | 90 | 5.2 | 0.0 | 0.00 | 0.00 | 0.00 | 82 | 1014.0 |
| 20260506040326 | 46 | 90 | 5.2 | 0.0 | 0.00 | 0.00 | 0.00 | 82 | 1014.0 |
| 20260506034826 | 43 | 110 | 5.2 | 0.0 | 0.00 | 0.00 | 0.00 | 87 | 1014.0 |
| 20260506033326 | 43 | 110 | 5.2 | 0.0 | 0.00 | 0.00 | 0.00 | 87 | 1014.0 |
| 20260506031826 | 43 | 90 | 5.2 | 0.0 | 0.00 | 0.00 | 0.00 | 87 | 1014.0 |
| 20260506030326 | 43 | 90 | 5.2 | 0.0 | 0.00 | 0.00 | 0.00 | 87 | 1014.0 |
| 20260506024826 | 43 | 100 | 4.3 | 0.0 | 0.00 | 0.00 | 0.00 | 87 | 1013.0 |
| 20260506023326 | 43 | 100 | 4.3 | 0.0 | 0.00 | 0.00 | 0.00 | 87 | 1013.0 |
| 20260506021826 | 43 | 100 | 5.2 | 0.0 | 0.00 | 0.00 | 0.00 | 87 | 1013.0 |
| 20260506020326 | 43 | 100 | 5.2 | 0.0 | 0.00 | 0.00 | 0.00 | 87 | 1013.0 |
| 20260506014826 | 43 | 100 | 6.1 | 0.0 | 0.00 | 0.00 | 0.00 | 87 | 1013.0 |
| 20260506013326 | 43 | 100 | 6.1 | 0.0 | 0.00 | 0.00 | 0.00 | 87 | 1013.0 |
| 20260506011827 | 45 | 90 | 6.1 | 0.0 | 0.00 | 0.00 | 0.00 | 81 | 1013.0 |
| 20260506010326 | 45 | 90 | 6.1 | 0.0 | 0.00 | 0.00 | 0.00 | 81 | 1013.0 |
| 20260506004826 | 46 | 90 | 4.3 | 0.0 | 0.00 | 0.00 | 0.00 | 82 | 1013.0 |
| 20260506003445 | 46 | 90 | 4.3 | 0.0 | 0.00 | 0.00 | 0.00 | 82 | 1013.0 |
| 20260506001826 | 46 | 90 | 5.2 | 0.0 | 0.00 | 0.00 | 0.00 | 82 | 1013.0 |
| 20260506000327 | 46 | 90 | 5.2 | 0.0 | 0.00 | 0.00 | 0.00 | 82 | 1013.0 |
| 20260505234826 | 48 | 70 | 4.3 | 0.0 | 0.00 | 0.00 | 0.00 | 76 | 1013.0 |
| 20260505233326 | 48 | 70 | 4.3 | 0.0 | 0.00 | 0.00 | 0.00 | 76 | 1013.0 |
| 20260505231826 | 48 | 100 | 4.3 | 0.0 | 0.00 | 0.00 | 0.00 | 76 | 1013.0 |
| 20260505230326 | 48 | 100 | 4.3 | 0.0 | 0.00 | 0.00 | 0.00 | 76 | 1013.0 |
| 20260505224826 | 46 | 100 | 5.2 | 0.0 | 0.00 | 0.00 | 0.00 | 82 | 1013.0 |
| 20260505223326 | 46 | 100 | 5.2 | 0.0 | 0.00 | 0.00 | 0.00 | 82 | 1013.0 |
| 20260505221823 | 50 | 100 | 5.2 | 0.0 | 0.00 | 0.00 | 0.00 | 71 | 1013.0 |
| 20260505220326 | 50 | 100 | 5.2 | 0.0 | 0.00 | 0.00 | 0.00 | 71 | 1013.0 |
| 20260505214827 | 50 | 90 | 5.2 | 0.0 | 0.00 | 0.00 | 0.00 | 71 | 1013.0 |
| 20260505213326 | 50 | 90 | 5.2 | 0.0 | 0.00 | 0.00 | 0.00 | 71 | 1013.0 |
| 20260505211826 | 48 | 100 | 5.2 | 0.0 | 0.00 | 0.00 | 0.00 | 71 | 1013.0 |
| 20260505210326 | 48 | 100 | 5.2 | 0.0 | 0.00 | 0.00 | 0.00 | 71 | 1013.0 |
| 20260505204828 | 50 | 70 | 5.2 | 0.0 | 0.00 | 0.00 | 0.00 | 67 | 1013.0 |
| 20260505203326 | 50 | 70 | 5.2 | 0.0 | 0.00 | 0.00 | 0.00 | 67 | 1013.0 |
| 20260505201857 | 54 | 1.7 | 0.0 | 0.00 | 0.00 | 0.00 | 63 | 1012.0 | |
| 20260505200327 | 54 | 1.7 | 0.0 | 0.00 | 0.00 | 0.00 | 63 | 1012.0 | |
| 20260505194826 | 54 | 0 | 0.0 | 0.0 | 0.00 | 0.00 | 0.00 | 63 | 1012.0 |
| 20260505193326 | 54 | 0 | 0.0 | 0.0 | 0.00 | 0.00 | 0.00 | 63 | 1012.0 |
| 20260505191826 | 57 | 0.9 | 0.0 | 0.00 | 0.00 | 0.00 | 59 | 1012.0 | |
| 20260505190326 | 57 | 0.9 | 0.0 | 0.00 | 0.00 | 0.00 | 59 | 1012.0 | |
| 20260505184827 | 59 | 350 | 0.9 | 0.0 | 0.00 | 0.00 | 0.00 | 55 | 1012.0 |
| 20260505183327 | 59 | 350 | 0.9 | 0.0 | 0.00 | 0.00 | 0.00 | 55 | 1012.0 |
| 20260505181827 | 64 | 1.7 | 0.0 | 0.00 | 0.00 | 0.00 | 49 | 1012.0 | |
| 20260505180326 | 64 | 1.7 | 0.0 | 0.00 | 0.00 | 0.00 | 49 | 1012.0 | |
| 20260505174824 | 68 | 110 | 4.3 | 0.0 | 0.00 | 0.00 | 0.00 | 40 | 1011.0 |
| 20260505173326 | 68 | 110 | 4.3 | 0.0 | 0.00 | 0.00 | 0.00 | 40 | 1011.0 |
| 20260505171826 | 73 | 80 | 2.6 | 0.0 | 0.00 | 0.00 | 0.00 | 38 | 1011.0 |
| 20260505170326 | 73 | 80 | 2.6 | 0.0 | 0.00 | 0.00 | 0.00 | 38 | 1011.0 |
| 20260505164826 | 79 | 0.9 | 0.0 | 0.00 | 0.00 | 0.00 | 20 | 1012.0 | |
| 20260505163326 | 79 | 0.9 | 0.0 | 0.00 | 0.00 | 0.00 | 20 | 1012.0 | |
| 20260505161827 | 81 | 1.7 | 0.0 | 0.00 | 0.00 | 0.00 | 18 | 1012.0 | |
| 20260505160327 | 81 | 1.7 | 0.0 | 0.00 | 0.00 | 0.00 | 18 | 1012.0 | |
| 20260505153326 | 81 | 1.7 | 0.0 | 0.00 | 0.00 | 0.00 | 17 | 1012.0 | |
| 20260505151834 | 79 | 2.6 | 0.0 | 0.00 | 0.00 | 0.00 | 20 | 1012.0 | |
| 20260505150327 | 79 | 2.6 | 0.0 | 0.00 | 0.00 | 0.00 | 20 | 1012.0 | |
| 20260505140326 | 81 | 210 | 4.3 | 0.0 | 0.00 | 0.00 | 0.00 | 23 | 1013.0 |
| 20260505124826 | 81 | 230 | 5.2 | 0.0 | 0.00 | 0.00 | 0.00 | 23 | 1014.0 |
| 20260505123326 | 81 | 230 | 5.2 | 0.0 | 0.00 | 0.00 | 0.00 | 23 | 1014.0 |
| 20260505121826 | 79 | 230 | 5.2 | 0.0 | 0.00 | 0.00 | 0.00 | 21 | 1014.0 |
| 20260505120333 | 77 | 260 | 5.2 | 0.0 | 0.00 | 0.00 | 0.00 | 26 | 1014.0 |